Radiation Dose measured at exhaust stack monitor of Miscellaneous Solid Waste Incinerator Building/Incinerator raregas monitor
Date,Time,Incinerator Gas Monitor(cps),Wind Direction,Wind Velocity(m/s)
2021/07/02,00:00,1.4,north-northwest,0.8
2021/07/02,00:10,1.4,-,CALM
2021/07/02,00:20,1.4,north,0.6
2021/07/02,00:30,1.4,north,0.9
2021/07/02,00:40,1.4,north,0.9
2021/07/02,00:50,1.6,north,0.8
2021/07/02,01:00,1.4,north,1.5
2021/07/02,01:10,1.4,north,1.5
2021/07/02,01:20,1.5,north-northeast,1.2
2021/07/02,01:30,1.4,north,1.1
2021/07/02,01:40,1.4,north-northwest,1.2
2021/07/02,01:50,1.5,north-northwest,1.5
2021/07/02,02:00,1.5,northwest,1.1
2021/07/02,02:10,1.5,west-northwest,0.8
2021/07/02,02:20,1.4,northwest,0.9
2021/07/02,02:30,1.5,north-northwest,1.1
2021/07/02,02:40,1.5,northwest,0.9
2021/07/02,02:50,1.4,north-northwest,1.5
2021/07/02,03:00,1.5,north-northwest,1.5
2021/07/02,03:10,1.4,north-northwest,1.4
2021/07/02,03:20,1.4,north,2.2
2021/07/02,03:30,1.4,north-northwest,1.5
2021/07/02,03:40,1.4,-,CALM
2021/07/02,03:50,1.4,north-northwest,1.5
2021/07/02,04:00,1.4,north,2.0
2021/07/02,04:10,1.5,north,2.6
2021/07/02,04:20,1.4,north-northwest,2.0
2021/07/02,04:30,1.4,north-northwest,3.0
2021/07/02,04:40,1.5,north-northwest,2.6
2021/07/02,04:50,1.4,northwest,2.0
2021/07/02,05:00,1.5,northwest,1.5
2021/07/02,05:10,1.5,north-northwest,2.2
2021/07/02,05:20,1.5,north-northwest,2.3
2021/07/02,05:30,1.5,north-northwest,2.2
2021/07/02,05:40,1.4,north-northwest,1.5
2021/07/02,05:50,1.4,north-northwest,1.5
2021/07/02,06:00,1.4,north,1.9
2021/07/02,06:10,1.6,north,1.1
2021/07/02,06:20,1.5,north-northeast,1.1
2021/07/02,06:30,1.5,north,1.2
2021/07/02,06:40,1.4,north,0.6
2021/07/02,06:50,1.5,north-northeast,0.9
2021/07/02,07:00,1.5,north,1.2
2021/07/02,07:10,1.4,north-northeast,1.2
2021/07/02,07:20,1.4,north-northeast,2.3
2021/07/02,07:30,1.5,north-northeast,1.7
2021/07/02,07:40,1.4,northeast,2.3
2021/07/02,07:50,1.5,northeast,2.2
2021/07/02,08:00,1.6,northeast,2.2
2021/07/02,08:10,1.4,northeast,2.6
2021/07/02,08:20,1.5,northeast,2.0
2021/07/02,08:30,1.4,north-northeast,2.3
2021/07/02,08:40,1.5,north-northeast,1.7
2021/07/02,08:50,1.4,north-northeast,2.2
2021/07/02,09:00,1.5,northeast,2.2
2021/07/02,09:10,1.5,northeast,2.3
2021/07/02,09:20,1.5,northeast,2.0
2021/07/02,09:30,1.5,northeast,1.9
2021/07/02,09:40,1.4,northeast,1.4
2021/07/02,09:50,1.6,northeast,2.0
2021/07/02,10:00,1.3,northeast,1.7
2021/07/02,10:10,1.4,northeast,1.5
2021/07/02,10:20,1.4,east-northeast,2.2
2021/07/02,10:30,1.5,east-northeast,2.2
2021/07/02,10:40,1.5,east,2.0
2021/07/02,10:50,1.4,east,2.3
2021/07/02,11:00,1.5,east-southeast,2.8
2021/07/02,11:10,1.4,east-southeast,2.0
2021/07/02,11:20,1.5,east-southeast,2.3
2021/07/02,11:30,1.4,east-southeast,1.9
2021/07/02,11:40,1.5,east-southeast,2.6
2021/07/02,11:50,1.5,east-southeast,1.5
2021/07/02,12:00,1.4,east-southeast,2.6
2021/07/02,12:10,1.5,east-southeast,2.0
2021/07/02,12:20,1.5,southeast,2.0
2021/07/02,12:30,1.5,southeast,1.7
2021/07/02,12:40,1.5,south-southeast,1.7
2021/07/02,12:50,1.4,southeast,2.0
2021/07/02,13:00,1.5,south-southeast,2.3
2021/07/02,13:10,1.5,south-southeast,2.5
2021/07/02,13:20,1.5,south-southeast,1.9
2021/07/02,13:30,1.4,south-southeast,2.2
2021/07/02,13:40,1.5,southeast,1.9
2021/07/02,13:50,1.5,southeast,1.4
2021/07/02,14:00,1.5,southeast,0.9
2021/07/02,14:10,1.4,south-southeast,1.7
2021/07/02,14:20,1.5,south-southeast,2.2
2021/07/02,14:30,1.5,south-southeast,1.9
2021/07/02,14:40,1.5,southeast,1.7
2021/07/02,14:50,1.4,east,1.1
2021/07/02,15:00,1.5,northeast,0.9
2021/07/02,15:10,1.5,northeast,1.7
2021/07/02,15:20,1.4,northeast,2.0
2021/07/02,15:30,1.5,northeast,2.5
2021/07/02,15:40,1.5,north-northeast,2.0
2021/07/02,15:50,1.4,northeast,2.6
2021/07/02,16:00,1.4,northeast,2.3
2021/07/02,16:10,1.5,north-northeast,2.3
2021/07/02,16:20,1.5,north-northeast,2.6
2021/07/02,16:30,1.5,north-northeast,2.3
2021/07/02,16:40,1.5,northeast,2.0
2021/07/02,16:50,1.4,northeast,2.0
2021/07/02,17:00,1.4,north-northeast,2.0
2021/07/02,17:10,1.5,north-northeast,2.8
2021/07/02,17:20,1.5,north-northeast,2.3
2021/07/02,17:30,1.4,north,2.3
2021/07/02,17:40,1.5,north-northeast,2.6
2021/07/02,17:50,1.4,north-northeast,2.8
2021/07/02,18:00,1.4,north-northeast,2.6
2021/07/02,18:10,1.4,north-northeast,3.3
2021/07/02,18:20,1.5,north-northeast,3.5
2021/07/02,18:30,1.4,north-northeast,3.5
2021/07/02,18:40,1.4,north-northeast,3.2
2021/07/02,18:50,1.4,north-northeast,3.6
2021/07/02,19:00,1.5,north,3.8
2021/07/02,19:10,1.5,north,3.8
2021/07/02,19:20,1.4,north,4.3
2021/07/02,19:30,1.6,north,5.3
2021/07/02,19:40,1.4,north,6.2
2021/07/02,19:50,1.4,north-northeast,6.4
2021/07/02,20:00,1.5,north-northeast,7.6
2021/07/02,20:10,1.5,north,7.4
2021/07/02,20:20,1.4,north,7.3
2021/07/02,20:30,1.4,north,7.5
2021/07/02,20:40,1.4,north,6.7
2021/07/02,20:50,1.5,north,6.1
2021/07/02,21:00,1.4,north,5.7
2021/07/02,21:10,1.5,north,7.0
2021/07/02,21:20,1.5,north,6.5
2021/07/02,21:30,1.5,north,5.9
2021/07/02,21:40,1.5,north,6.1
2021/07/02,21:50,1.4,north,6.5
2021/07/02,22:00,1.5,north,6.7
2021/07/02,22:10,1.5,north,6.7
2021/07/02,22:20,1.5,north,6.8
2021/07/02,22:30,1.5,north,6.6
2021/07/02,22:40,1.5,north-northwest,5.6
2021/07/02,22:50,1.5,north-northwest,5.2
2021/07/02,23:00,1.5,north-northwest,5.1
2021/07/02,23:10,1.5,north-northwest,6.6
2021/07/02,23:20,1.4,north-northwest,5.9
2021/07/02,23:30,1.5,north-northwest,5.5
2021/07/02,23:40,1.4,north-northwest,6.1
2021/07/02,23:50,1.5,north-northwest,6.4
